{"data":{"norad_id":61670,"epoch":"2026-05-25T03:46:54.239808Z","epoch_age_seconds":61356,"freshness":"FRESH","line1":"1 61670U 24193K   26145.15757222 -.00000008  00000+0  11871-4 0  9998","line2":"2 61670  53.1610  95.8636 0001237  95.7463 264.3679 15.30193631 88232","mean_motion":15.30193631,"eccentricity":0.0001237,"inclination_deg":53.161,"raan_deg":95.8636,"arg_perigee_deg":95.7463,"mean_anomaly_deg":264.3679,"bstar":1.1871e-5,"rev_number":8823,"period_min":94.10573739344,"perigee_km":474.3863241679,"apogee_km":476.08184817462,"semimajor_km":6853.3710861713,"source":"CELESTRAK","updated_at":"2026-05-25T13:38:19.434551Z"}}